Reflectivity
-20 -20 -20 -20 -20 -20 -20 -20 -20 -20 -20 -20 -20 -20 -20 -20 -20 -20 -20 -20 -20 -20 -20 -20 -20 -20 -20 -20 -20 -20 -20 -20 -20 -20 -20 -20 -20 -20 -20 -20 -20 -20 -20 -20
13 -12 -20 -20 -20 -20 -20 -20 -20 -20 -20 -20 -20 -20 -20 -20 -20 -20 -20 -20 -20 -20 -20 -20 -20 -20 -20 -20 -20 -20 -20 -20 -20 -20 -20 -20 -20 -20 -20 -20 -20 -20 -20 -20
-19 -18 -20 -20 -20 -20 -20 -20 -20 -20 -20 -18 -20 -20 -20 -20 -20 -20 -20 -20 -20 -20 -20 -20 -19 -20 -20 -20 -20 -20 -20 -20 -20 -20 -20 -20 -20 -20 -20 -20 -20 -20 -20 -20
-20 -20 -20 -20 -20 -20 -20 -20 -20 -20 -11 -17 -11 -20 -20 -20 -20 -20 -20 -20 -20 -20 -20 -20 -3 1 -20 -20 -20 -20 -20 -20 -20 -20 -20 -20 -20 -20 -20 -20 -20 -20 -20 -20
-20 -20 -20 -20 -20 -20 5 11 0 -20 -20 -20 -20 -20 -20 -20 -20 -20 -20 -20 -20 -20 -20 -20 -15 -1 -7 -20 -20 -20 -20 -20 -20 -20 -20 -20 -20 -20 -20 -20 -20 -20 -20 -20
-20 -20 -20 -20 -20 -20 -20 -18 -14 7 25 18 7 -20 -20 -20 -20 -20 -20 -20 -20 -20 -20 -20 -20 -20 -16 -20 -20 -20 -20 -20 -20 -20 -20 -20 -20 -20 -20 -20 -20 -20 -20 -20
-20 -20 -5 -20 -20 -20 -20 -20 -20 -20 -13 12 -3 -4 7 -9 -20 -20 -20 -20 -20 -20 -20 -20 -20 -20 -7 -20 -20 -20 -20 -20 -20 -20 -20 -20 -20 -20 -20 -20 5 -20 -20 -20
-20 -20 -20 -20 -20 -20 -20 -20 -20 -20 -20 -20 -20 -20 -20 -20 -20 -20 -20 -20 -20 -20 -20 -20 -20 -20 -11 -20 -20 -20 -20 -20 -20 -20 -20 -20 -20 -20 -20 -20 -20 19 -20 -20
-20 -20 -20 -20 -20 -20 -20 -20 -20 -20 -20 -17 -20 -20 -20 -20 -20 -20 -20 -20 -20 -20 -20 -20 -20 -20 -20 -20 -20 -20 -20 -20 -20 -20 -20 -20 -20 -20 -20 -20 -17 24 -3 18
-20 -20 -20 -20 -20 -20 -20 -20 -20 -1 4 -17 -20 -20 -20 -20 -20 -20 -20 -20 -20 -20 -20 -20 -20 -20 -20 -20 -20 -20 -20 -20 -20 -20 -20 -20 -20 -20 -20 -20 -20 -19 4 13
-20 -20 -20 -20 -20 -20 -20 -20 -16 2 -10 8 -14 -20 -20 -20 -20 -20 -20 -20 -20 -20 -20 -20 -20 -20 -20 -20 -20 -20 -20 -20 -20 -20 -20 -20 -20 -20 -20 -20 -20 -17 19 1
-20 -20 -20 -20 -20 -20 -20 -20 -20 9 -20 -20 4 -12 -20 -20 -20 -20 -20 -20 -20 -20 -20 -20 -20 -20 -20 -20 -20 -20 -20 -20 -20 -20 -20 -20 -5 -20 -20 -20 -18 -20 4 -7
-20 -20 -20 -20 -20 -20 -20 -20 -20 -20 -20 -20 13 -20 -20 -20 -20 -20 -20 -20 -20 -20 -20 -20 -20 -20 -20 -20 -20 -20 -20 -20 -20 -20 -20 -20 11 -20 -20 12 16 -20 7 16
-20 -20 -20 -8 -20 -20 -20 -20 -20 -20 -12 -20 -14 -20 -20 -20 -20 -20 -20 -20 -20 -20 -20 -20 -20 -20 -20 -20 -20 -20 -20 -20 -20 -20 -20 -20 1 -14 -0 3 -18 8 3 19
-20 -20 -20 -20 -20 -20 -20 -20 -20 -20 -20 12 -20 -20 -20 -20 -20 -20 -20 -20 -20 -20 -20 -20 -20 -20 -20 -20 -20 -20 -20 -20 -20 -9 -16 11 11 -10 -8 5 -7 -11 9 16
-20 -9 -20 -20 -20 -20 -20 -20 -20 -20 -20 -20 -20 -20 -20 -20 -20 -20 -20 -20 -20 -20 -20 -20 -20 -20 -20 -20 -20 -20 -20 -20 27 17 25 12 26 -18 -20 -20 -20 -20 -20 -19
10 1 9 -20 -20 -20 -20 -20 -20 -20 -20 -20 -20 -20 -20 -20 -20 -20 -20 -20 -20 -20 -20 -20 -20 -20 -20 -18 -14 -20 -20 -20 -3 11 -11 2 -10 27 20 -20 11 17 6 -19
-20 -20 -20 -18 -16 -12 -20 -20 -20 -20 -20 -20 -20 -20 -20 -20 -20 -20 -20 -20 -20 -20 -20 -20 -20 -20 -20 -20 -4 12 5 -20 -20 6 24 27 24 24 -19 -20 4 -20 -17 -7
-20 -20 -2 10 -3 -20 -20 -20 -20 -20 -20 -20 -20 -20 -20 -20 -20 -20 -20 -20 -20 -20 -20 -20 -20 -20 -20 -20 0 27 26 20 1 -13 -17 20 22 4 -9 -17 -18 22 5 -13
-20 -20 -18 -11 11 -20 -20 -20 -20 -20 -20 -20 -20 -20 -20 -20 -20 -20 -20 -20 -20 -20 -20 -20 -20 -20 -20 -20 10 6 -2 11 -3 8 6 18 21 22 29 -13 20 18 19 -18
-20 -20 -18 -19 -0 -17 -20 -20 -20 -20 -20 -20 -20 -20 -20 -20 -20 -20 -20 -20 -20 -20 -20 -20 -20 -20 -20 -20 -16 -8 -15 -20 13 25 28 25 14 20 -9 14 15 23 19 11
-20 -13 -20 0 6 4 -20 -20 -20 -20 -20 -20 -20 -20 -20 -20 -20 -20 -20 -20 -20 -20 -20 -20 -20 -20 -20 -20 -20 8 12 -20 -9 13 13 -18 -20 0 8 24 12 19 -4 0
-20 -20 -20 2 -20 -20 -20 -20 -20 -20 -20 -20 -20 -20 -20 -20 -20 -20 -20 -20 -20 -20 -20 -20 -20 -20 -20 -20 -20 -7 -3 -20 -20 -20 -20 -20 -20 -20 17 15 17 4 -20 -20
-20 -20 -20 -14 -20 -20 -20 -20 -20 -20 -20 -20 -20 -20 -20 -20 -20 -20 -20 -20 -20 -20 -20 -20 -20 -20 -20 -20 -20 -20 -20 -20 -20 -20 -20 -20 -20 -20 -11 8 -19 -20 -20 -20
-20 -20 -17 -15 -20 -20 -20 -20 -20 -20 -20 -20 -20 -20 -20 -20 -20 -20 -20 -20 -20 -20 -20 -20 -20 -20 -20 -20 -20 -20 -20 -20 -20 -20 -20 -20 -20 -20 -20 -20 -19 -11 -20 -7
-19 5 5 -20 -20 -6 -12 -20 -15 -20 -20 -20 -20 -20 -20 -20 -20 -20 -20 -20 -20 -20 -20 -20 -20 -20 -20 -20 -20 -20 21 -15 -20 -20 -20 -20 -20 -20 -17 -1 24 31 30 28
Wind_Speed
4 5 13 17 18 2 4 5 8 3 1 5 6 10 10 9 12 7 11 13 10 17 23 21 22 20 18 14 16 18 18 18 13 12 13 12 14 10 9 8 10 11 10 11
2 15 17 4 7 9 6 8 17 8 5 3 12 20 17 8 12 10 12 13 13 6 10 16 20 21 20 19 19 17 20 18 17 14 14 10 10 8 9 7 9 11 12 12
9 3 7 4 5 8 11 14 16 10 6 7 4 19 20 15 7 10 8 11 9 11 13 9 13 19 22 21 18 20 22 22 20 18 11 4 4 3 5 9 10 11 13 14
8 8 15 7 7 8 12 4 11 10 2 10 4 10 21 8 9 7 11 8 11 12 9 9 8 10 18 23 22 21 21 22 20 20 17 21 15 15 14 10 8 9 12 12
5 3 7 4 7 6 9 2 7 6 9 7 14 5 21 2 10 8 9 11 9 10 10 11 10 9 14 15 18 21 21 19 19 21 21 17 17 13 9 9 11 11 8 11
4 4 3 7 1 2 7 3 4 6 4 8 20 8 28 14 12 5 5 10 11 12 10 10 10 8 7 10 12 10 13 18 20 21 23 24 23 17 11 13 10 10 8 8
4 10 4 5 2 3 6 1 3 5 7 13 13 9 27 5 9 8 10 10 10 10 10 11 10 8 8 8 12 13 16 19 21 22 23 23 23 20 17 15 13 14 10 8
3 5 3 3 7 7 5 6 6 6 4 12 6 12 27 20 17 13 9 9 13 15 13 9 9 8 9 9 12 15 17 21 19 20 24 21 21 14 13 15 11 11 12 11
5 4 6 4 5 2 3 3 3 5 9 9 7 10 17 17 11 9 10 15 18 19 20 16 14 13 12 11 10 16 19 22 21 25 20 21 19 19 17 16 13 10 9 8
3 5 2 4 4 3 3 3 3 1 5 5 8 8 15 13 14 16 13 16 18 16 17 14 13 12 10 12 13 13 20 24 25 22 20 18 20 18 16 14 15 14 12 14
3 1 6 4 3 1 5 3 4 2 2 3 5 6 9 5 8 13 16 15 16 18 19 18 17 18 18 15 14 16 18 22 20 19 19 19 17 17 15 15 16 16 13 15
4 4 4 7 8 7 2 3 3 3 4 3 5 12 8 5 18 17 15 18 19 18 16 18 20 17 13 16 18 17 16 19 20 19 18 18 15 16 15 16 16 15 15 15
6 4 5 6 4 4 3 3 1 4 5 9 5 12 3 21 14 16 17 15 17 16 20 20 19 16 17 17 17 13 11 13 13 16 17 16 15 16 15 14 14 14 13 13
6 5 7 6 6 5 10 7 1 5 5 6 14 17 29 26 23 22 16 12 16 17 19 19 17 16 18 18 9 7 6 6 11 13 15 16 16 15 14 12 12 13 12 13
1 5 6 12 8 6 12 15 14 14 13 11 21 16 28 29 26 26 16 14 15 17 20 20 19 17 14 10 10 7 6 5 8 12 14 15 12 13 13 12 12 12 13 13
2 6 5 18 13 12 17 19 13 15 18 17 23 25 25 25 26 19 17 14 12 18 17 17 18 19 18 13 11 7 7 4 5 8 9 9 11 13 14 14 14 14 16 17
6 3 4 22 7 10 16 14 19 16 16 15 17 23 24 19 21 21 14 10 11 10 15 17 17 16 16 16 12 10 9 7 9 9 11 12 13 13 13 14 15 16 18 19
12 9 5 14 8 16 7 7 5 10 10 7 16 21 23 23 21 14 9 9 7 12 17 18 16 18 18 17 13 8 8 10 11 11 10 11 12 13 15 16 16 17 17 19
18 11 7 7 10 17 25 16 12 7 18 14 22 20 23 20 14 14 8 7 9 11 13 13 14 17 19 17 13 14 11 11 12 13 14 15 15 16 17 18 18 17 18 17
10 13 9 3 6 10 20 11 6 4 9 25 11 19 21 9 9 17 6 7 11 11 11 14 16 16 16 16 14 16 12 12 15 15 16 13 14 15 16 18 18 15 15 16
4 3 15 14 11 13 9 11 4 5 21 14 5 12 14 12 9 17 13 9 9 10 12 15 14 13 14 14 12 15 15 16 20 11 14 15 15 16 18 18 16 18 17 17
9 6 6 9 9 18 10 6 12 15 11 9 5 8 9 11 15 16 19 15 9 11 13 13 12 13 15 9 9 15 16 20 12 13 14 17 17 14 15 20 18 18 19 19
7 12 8 11 10 7 4 7 4 5 8 11 6 10 12 19 21 20 21 21 11 11 12 12 11 13 14 10 8 15 17 13 11 13 16 17 18 17 17 19 19 16 17 16
8 5 9 6 21 23 21 16 20 20 20 24 19 17 17 19 18 22 19 18 13 11 12 12 12 13 14 10 11 14 11 8 11 12 12 13 14 15 14 12 14 15 16 15
12 1 4 13 23 17 20 19 24 27 21 20 22 19 18 17 20 17 19 17 13 12 11 9 13 15 10 6 7 8 8 6 10 9 9 10 9 11 11 9 10 11 12 14
12 20 10 18 23 16 23 25 23 19 18 14 13 20 18 13 17 17 17 16 13 13 12 12 12 9 6 5 4 4 8 5 9 12 9 9 10 10 9 10 10 15 16 19
Wind_Direction
199 152 217 209 209 220 190 230 248 240 343 356 277 297 284 286 288 264 273 277 207 225 232 222 218 218 215 205 202 199 194 198 183 187 191 196 205 200 207 206 198 198 193 189
113 233 225 206 175 202 231 247 261 289 248 247 300 287 282 265 268 248 245 266 265 223 225 231 226 216 212 206 202 198 200 193 195 193 197 201 198 207 202 196 202 202 192 189
208 254 185 197 168 206 228 230 257 264 336 263 282 282 284 269 256 281 245 244 272 257 265 233 208 220 208 212 199 199 199 197 197 196 185 136 121 110 179 200 202 201 190 187
236 265 271 271 243 202 245 192 254 276 291 271 143 279 279 290 258 251 281 256 257 273 264 257 227 198 214 217 213 206 202 199 197 188 188 189 197 200 208 201 196 189 187 187
225 39 46 280 256 221 261 328 275 262 257 288 254 250 272 212 260 256 259 275 269 261 270 272 246 221 208 234 219 207 202 200 196 195 194 192 201 208 194 194 188 185 179 180
236 251 214 197 321 101 306 309 308 260 62 281 265 206 279 248 261 236 259 272 269 288 285 286 285 289 217 215 220 214 214 210 197 195 197 196 199 196 187 186 181 187 182 181
298 262 219 182 266 212 208 217 293 234 182 232 236 258 254 236 278 266 280 287 299 291 291 289 286 294 282 217 214 205 200 208 204 201 200 200 199 195 191 184 189 178 178 190
202 323 200 165 211 198 197 187 187 228 206 265 186 210 245 261 272 293 299 284 295 307 306 288 294 280 260 232 218 210 208 216 205 203 208 202 197 195 191 188 190 194 188 181
341 264 348 334 6 68 302 251 244 267 267 273 254 286 294 284 298 308 304 307 297 295 296 293 314 316 309 305 251 221 214 219 207 204 202 203 194 190 189 178 188 191 181 168
233 279 318 10 359 353 194 222 321 292 298 240 246 226 249 288 298 302 332 331 323 320 316 305 301 302 297 297 291 246 226 218 210 205 199 201 198 184 180 171 174 180 172 169
330 110 308 30 42 27 343 349 342 306 218 239 276 259 242 314 34 349 323 311 305 306 308 303 297 295 291 296 294 275 235 220 210 200 199 197 197 183 172 175 178 180 176 175
335 280 260 222 233 246 155 221 182 196 305 276 273 267 272 25 343 333 310 297 301 303 308 304 302 302 294 296 301 284 242 215 205 196 192 193 186 180 175 180 181 177 179 179
343 327 326 328 17 16 154 158 55 185 166 246 275 265 318 314 314 311 293 289 292 301 308 309 307 306 307 299 301 277 237 219 204 190 184 178 184 181 182 183 179 171 172 172
284 219 207 232 255 331 300 303 251 243 214 262 246 286 296 299 305 310 304 300 296 300 308 305 306 307 309 303 289 295 269 223 198 192 183 178 185 182 181 174 170 161 161 156
273 264 293 287 264 275 273 266 268 256 254 251 277 275 275 288 293 293 306 296 302 313 314 318 315 309 310 298 286 284 282 231 214 197 189 188 168 178 173 166 156 150 151 149
287 281 321 288 283 271 269 256 249 249 256 257 259 264 262 273 281 285 293 296 297 308 314 324 323 325 327 305 279 258 241 255 204 190 189 161 174 168 164 158 149 147 143 141
239 244 284 278 274 291 272 254 231 237 242 235 251 254 274 274 277 286 294 289 288 295 310 311 315 313 317 318 298 250 235 193 207 206 174 181 175 167 159 152 149 149 149 144
240 234 222 276 299 268 264 197 194 226 246 267 268 260 262 268 270 287 287 265 272 307 316 318 314 311 308 304 301 257 214 203 201 203 202 181 177 166 156 154 155 149 149 146
214 223 244 247 246 282 287 268 244 229 268 248 246 262 264 267 295 271 234 246 289 287 290 297 302 303 302 301 307 295 215 202 195 197 196 188 177 166 158 157 156 154 146 145
203 214 208 180 244 239 266 285 141 140 274 250 261 255 265 268 263 271 226 250 276 273 284 298 303 299 299 303 315 318 254 204 208 199 196 188 178 169 165 154 153 152 149 143
158 180 217 234 243 260 253 259 150 191 254 290 194 244 259 258 233 273 281 276 250 258 278 290 296 290 303 306 305 309 287 237 230 199 179 172 172 172 161 156 153 153 147 143
195 183 209 232 240 258 206 271 196 242 283 270 263 243 260 268 274 273 284 275 262 272 281 279 284 293 301 300 301 305 291 251 226 188 169 169 166 165 161 157 156 154 149 144
233 204 215 191 230 279 245 235 269 272 262 270 247 266 272 282 276 278 284 288 261 255 268 275 268 283 292 307 312 293 292 231 181 170 174 167 161 160 162 161 158 154 151 149
262 221 241 271 262 262 276 279 276 273 261 271 266 272 277 268 268 276 281 280 266 265 274 277 270 272 285 311 313 285 310 146 161 163 156 159 154 153 158 159 160 156 153 149
252 69 254 257 262 284 268 264 267 272 267 267 277 269 261 263 266 265 272 273 269 268 273 261 255 266 266 298 306 310 15 133 127 126 133 133 135 141 142 148 155 153 151 145
251 249 242 263 276 265 281 275 269 277 275 259 255 274 263 246 256 267 268 272 268 266 275 273 256 244 243 245 271 22 47 37 122 123 128 137 135 128 123 116 91 72 112 118